Location: Mont Hereford
(45.0826°N, 71.6017°W)
Time: 20:18:32
(UTC-04:00)

Tiangong 2 - Visible Passes

Search period start: 20 July 2018 00:00
Search period end: 30 July 2018 00:00
Orbit: 386 x 394 km, 42.8° (Epoch: 20 July)

Date Brightness Start Highest point End Pass type
(mag) Time Alt. Az. Time Alt. Az. Time Alt. Az.
20 Jul 1.9 21:39:05 10° W 21:42:02 35° SSW 21:43:42 20° SE visible
21 Jul 3.1 22:18:43 10° WSW 22:20:44 17° SSW 22:20:44 17° SSW visible
22 Jul 2.6 21:20:40 10° W 21:23:19 24° SSW 21:25:28 13° SSE visible
24 Jul 3.3 21:02:31 10° WSW 21:04:30 15° SSW 21:06:29 10° S visible
